Regional Weather Roundup
Issued by NWS

Home | Current Version | Previous Version | Graphics & Text | Print | Product List | Glossary On
Versions: 1 2 3 4 5 6 7 8 9 10 11 12 13 14 15 16 17 18 19 20 21 22 23 24 25 26 27 28 29 30 31 32 33 34 35 36 37 38 39 40 41 42 43 44 45 46 47 48 49 50
000
ASUS43 KLOT 190910
RWRIL

ILLINOIS REGIONAL WEATHER ROUNDUP
NATIONAL WEATHER SERVICE CHICAGO/ROMEOVILLE IL
400 AM CDT FRI SEP 19 2014

NOTE: "FAIR" INDICATES FEW OR NO CLOUDS BELOW 12,000 FEET WITH NO
SIGNIFICANT WEATHER AND/OR OBSTRUCTIONS TO VISIBILITY.

* THESE STATIONS ARE NOT UNDER NWS QUALITY CONTROL. THEY ALSO MAY NOT
  REPORT WEATHER SUCH AS PRECIPITATION OR FOG.

ILZ001-002-007-009-015-016-024-191000-
NORTHWEST ILLINOIS

CITY           SKY/WX    TMP DP  RH WIND       PRES   REMARKS
MOLINE         CLEAR     49  47  93 E6        30.10F FOG
STERLING*        N/A     48  45  87 E5        30.12S VSB 1/2
SAVANNA*       CLEAR     53  50  92 E5        30.11F FOG
$$

ILZ003-004-008-010-011-017-018-191000-
NORTH CENTRAL ILLINOIS

CITY           SKY/WX    TMP DP  RH WIND       PRES   REMARKS
ROCKFORD       CLOUDY    56  55  97 SE3       30.16S FOG
FREEPORT*      FOG       52  51  96 E6        30.15F VSB 1/2
ROCHELLE*      FOG       52  51  97 CALM      30.13R VSB 3/4
DE KALB*       FOG       53  53  99 E3        30.15R VSB 1/4
PERU*          FOG       55  54  97 CALM      30.13S VSB 1/4
$$

ILZ005-006-012>014-019>023-191000-
NORTHEAST ILLINOIS

CITY           SKY/WX    TMP DP  RH WIND       PRES   REMARKS
CHICAGO-OHARE  CLEAR     55  52  89 SE7       30.14S
CHICAGO-MIDWAY CLEAR     59  51  75 SE9       30.14S
AURORA         FOG       50  48  93 NE3       30.14R VSB 1/4
LANSING*       CLEAR     54  50  89 SE7       30.15S
JOLIET*        CLEAR     55  49  82 SE6       30.14S
WAUKEGAN       CLEAR     57  55  93 SE5       30.13F
DUPAGE AIRPORT CLEAR     55  53  93 E3        30.13S FOG
KANKAKEE*      CLEAR     50  49  94 E6        30.14S
WHEELING       CLEAR     53  50  89 CALM      30.15S
MORRIS*        CLEAR     49  49 100 E3        30.12S FOG
ROMEOVILLE*    CLEAR     54  51  92 SE7       30.13F
NORTHERLY ISL    N/A     60  53  77 SE12        N/A
$$

LMZ740>746-191000-
SOUTHERN LAKE MICHIGAN

STATION/POSITION SKY/WX   TEMP    WIND        PRES    VSBY  WAVE
                          AIR SEA DIR/SP/G                  HT/PER
                          (F)     (DEG/KT/KT) (MB)    (MI)  (FT/S)
SOUTHERN BUOY              61 62  150/ 16/ 19 1020.8F         3/ 4
WAUKEGAN HARBOR            61     150/ 11/ 12   N/A
HARRISON CRIB              61     160/ 18/ 23   N/A
BURNHAM HARBOR             60     150/  9/ 13   N/A
CALUMET HARBOR             59     140/  6/  9 1019.5S
MICHIGAN CITY              57     110/ 10/ 13   N/A
MICHIGAN CITY 6N           59 65  140/ 16/ 19   N/A           2/ 2
ST. JOSEPH                 57 66  120/ 14/ 17   N/A           2/ 2
$$

ILZ025>027-034>036-040-047-049-050-058-095>099-191000-
WEST-CENTRAL ILLINOIS

CITY           SKY/WX    TMP DP  RH WIND       PRES   REMARKS
QUINCY         CLEAR     54  50  86 SE7       30.07F
GALESBURG*     CLEAR     51  49  92 E5        30.11R FOG
MACOMB*        CLEAR     46  46 100 CALM      30.11S
JACKSONVILLE*  FAIR      50  48  93 E3        30.10S
PITTSFIELD*    CLEAR     51  49  92 CALM      30.09F
$$

ILZ028>032-037-038-041>044-048-051>054-059>061-191000-
CENTRAL ILLINOIS

CITY           SKY/WX    TMP DP  RH WIND       PRES   REMARKS
PONTIAC        CLEAR     52  52 100 SE5       30.11F FOG
DECATUR        CLEAR     48  45  89 CALM      30.11F
PEORIA         CLEAR     54  49  83 E3        30.11S
LACON*         CLEAR     51  49  93 CALM      30.11S FOG
LINCOLN*       CLEAR     49  47  93 CALM      30.09S
SPRINGFIELD    CLEAR     49  46  90 CALM      30.10F
TAYLORVILLE    CLEAR     50  46  87 E3        30.10F
$$

ILZ033-039-045-046-055>057-062-063-191000-
EAST-CENTRAL ILLINOIS

CITY           SKY/WX    TMP DP  RH WIND       PRES   REMARKS
CHAMPAIGN      CLEAR     49  47  93 E7        30.12F
DANVILLE*      CLEAR     49  47  92 E3        30.11F
RANTOUL*       CLEAR     52  47  84 E3        30.13F
MATTOON        CLEAR     50  47  89 CALM      30.10F
PARIS*         CLEAR     46  46 100 CALM      30.12F FOG
$$

ILZ079-100>102-191000-
SOUTHWEST ILLINOIS

CITY           SKY/WX    TMP DP  RH WIND       PRES   REMARKS
ALTON          CLEAR     52  51  96 CALM      30.09S FOG
BELLEVILLE     CLEAR     52  52 100 W2        30.07F FOG
CAHOKIA*       FOG       52  50  93 CALM      30.08S VSB 1/2
SPARTA*        CLEAR     51  49  96 CALM      30.08S
$$

ILZ064>066-069>071-074>076-080>082-084>086-088>090-092>094-191000-
SOUTH-CENTRAL ILLINOIS

CITY           SKY/WX    TMP DP  RH WIND       PRES   REMARKS
CARBONDALE     CLEAR     52  51  97 CALM      30.07S FOG
CAIRO*         CLEAR     58  54  85 CALM      30.04F
EFFINGHAM*     CLEAR     50  47  90 CALM      30.10S
MARION           N/A     54  52  94 CALM      30.07S FOG
MT. VERNON     CLEAR     54  46  76 N6        30.09S
CENTRALIA*     CLEAR     52  50  93 E3        30.09R
SALEM*         CLEAR     57  54  88 NE3       30.10S
METROPOLIS*    CLEAR     54  54 100 CALM      30.04F
$$

ILZ067-068-072-073-078-083-087-091-191000-
SOUTHEAST ILLINOIS

CITY           SKY/WX    TMP DP  RH WIND       PRES   REMARKS
LAWRENCEVILLE  CLEAR     54  51  90 NE7       30.11R
FLORA*         CLEAR     52  50  94 N3        30.10S
FAIRFIELD*     CLEAR    N/A N/A N/A N3        30.09R
HARRISBURG*    CLEAR     54  54  99 CALM      30.08S
ROBINSON*      FOG       48  47  99 CALM      30.12S VSB 1/4
CARMI*         CLEAR     52  52  99 CALM      30.07S
$$

ABBREVIATIONS USED IN REMARKS
   TC - TEMPERATURE IN CELSIUS
  WCI - WIND CHILL INDEX
   HX - HEAT INDEX
  VSB - VISIBILITY
$$



USA.gov is the U.S. government's official web portal to all federal, state and local government web resources and services.